STARLINK-35633 (66162 NORAD) Tracking and Keplerian Element Data

This shows tracking and keplerian element data for the satellite.

Feedback or suggestion? Click here.




ElementValue
Catalog66162
NameSTARLINK-35633
Epoch Orbit973
Epoch Day353.63845697
Epoch Year2025
RAAN74.5316
Inclination53.1621
Eccentricity0.0001426
Argument of Perigee82.6424
Mean Anonmoly277.4739
Mean Motion15.3020504
Decay Rate0.00015232
L11 66162U 25240S 25353.63845697 .00015232 00000+0 52527-3 0 9996
L22 66162 53.1621 74.5316 0001426 82.6424 277.4739 15.30205040 9734



Live tracking and technical data element details for STARLINK-35633 (NORAD 66162). STARLINK-35633 can be tracked NOW for your location showing map with azimuth and elevation plus other details from your city location.







IsCatalogInMostPopularTable: catalog: 66162, numindb: 4
Update: records affected: 1



GetName: 66162 STARLINK-35633

Hit Count: updated at: Wed, 11 Feb 2026 15:20:36 GMT